This is the latest recevied weather packets stored in our database for station/object VE4GLS. If no packets are shown the sender has not sent any weather packets the latest 1 day(s).
| Time | Temp. | Humidity | Pressure | Rain* | Wind** | Luminosity | Snow |
|---|---|---|---|---|---|---|---|
| 1777993355 | 0.56° C | 74% | 1010.2 hPa | 0 mm | 4.02 m/s, 338° | - | - |
| 1777992983 | 0.56° C | 73% | 1010.1 hPa | 0 mm | 5.36 m/s, 320° | - | - |
| 1777992455 | 0.56° C | 74% | 1010 hPa | 0 mm | 4.02 m/s, 340° | - | - |
| 1777992383 | 0.56° C | 74% | 1010 hPa | 0 mm | 4.02 m/s, 326° | - | - |
| 1777991783 | 0.56° C | 73% | 1010 hPa | 0 mm | 6.26 m/s, 340° | - | - |
| 1777991555 | 0.56° C | 73% | 1010 hPa | 0 mm | 5.81 m/s, 338° | - | - |
| 1777991183 | 0.56° C | 73% | 1009.9 hPa | 0 mm | 4.47 m/s, 344° | - | - |
| 1777990654 | 0° C | 74% | 1009.8 hPa | 0 mm | 7.15 m/s, 326° | - | - |
| 1777990582 | 0° C | 74% | 1009.9 hPa | 0 mm | 5.81 m/s, 328° | - | - |
| 1777989983 | -0.56° C | 77% | 1009.8 hPa | 0 mm | 6.71 m/s, 327° | - | - |
| 1777989755 | -0.56° C | 78% | 1009.8 hPa | 0 mm | 7.15 m/s, 321° | - | - |
| 1777989383 | -0.56° C | 77% | 1009.7 hPa | 0 mm | 6.71 m/s, 308° | - | - |
| 1777988855 | -0.56° C | 80% | 1009.7 hPa | 0 mm | 7.6 m/s, 320° | - | - |
| 1777988783 | -0.56° C | 81% | 1009.6 hPa | 0 mm | 7.15 m/s, 315° | - | - |
| 1777988184 | -0.56° C | 80% | 1009.6 hPa | 0 mm | 6.26 m/s, 325° | - | - |
| 1777987956 | -0.56° C | 79% | 1009.5 hPa | 0 mm | 5.36 m/s, 315° | - | - |
| 1777987582 | -0.56° C | 79% | 1009.4 hPa | 0 mm | 6.26 m/s, 302° | - | - |
| 1777987054 | -0.56° C | 81% | 1009.3 hPa | 0 mm | 5.81 m/s, 329° | - | - |
| 1777986982 | -0.56° C | 81% | 1009.3 hPa | 0 mm | 6.26 m/s, 312° | - | - |
| 1777986382 | -1.11° C | 81% | 1009.2 hPa | 0 mm | 6.26 m/s, 332° | - | - |
| 1777986154 | -1.11° C | 82% | 1009.2 hPa | 0 mm | 6.71 m/s, 312° | - | - |
| 1777985783 | -1.11° C | 84% | 1009.2 hPa | 0 mm | 6.26 m/s, 339° | - | - |
| 1777985256 | -1.67° C | 85% | 1009.1 hPa | 0 mm | 4.47 m/s, 307° | - | - |
| 1777985184 | -1.67° C | 85% | 1009.1 hPa | 0 mm | 5.81 m/s, 302° | - | - |
| 1777984587 | -1.67° C | 85% | 1008.9 hPa | 0 mm | 4.47 m/s, 303° | - | - |
* Rain latest hour (hover to see other rain measurements)
** Current wind speed in m/s (hover to see current wind gust speed)